TimeICT,TemperatureF,Dew PointF,Humidity,Sea Level PressureIn,VisibilityMPH,Wind Direction,Wind SpeedMPH,Gust SpeedMPH,PrecipitationIn,Events,Conditions,WindDirDegrees,DateUTC
12:00 AM,80.6,69.8,70,29.95,6.2,East,5.8,-,N/A,,Scattered Clouds,90,2013-02-05 17:00:00
12:30 AM,78.8,69.8,74,29.95,5.6,Calm,Calm,-,N/A,,Scattered Clouds,0,2013-02-05 17:30:00
1:00 AM,79,72,74,29.91,6,Calm,Calm,,,,Mist,,2013-02-05 18:00:00
1:00 AM,77.0,71.6,83,29.95,5.6,Calm,Calm,-,N/A,,Scattered Clouds,0,2013-02-05 18:00:00
1:30 AM,77.0,71.6,83,29.95,5.6,Calm,Calm,-,N/A,,Scattered Clouds,0,2013-02-05 18:30:00
3:00 AM,75.2,69.8,83,29.89,5.6,Calm,Calm,-,N/A,,Scattered Clouds,0,2013-02-05 20:00:00
4:00 AM,77.0,69.8,78,29.89,5.6,Calm,Calm,-,N/A,,Scattered Clouds,0,2013-02-05 21:00:00
4:30 AM,77.0,69.8,78,29.89,5.6,Calm,Calm,-,N/A,,Scattered Clouds,0,2013-02-05 21:30:00
6:00 AM,75.2,69.8,83,29.89,5.6,Calm,Calm,-,N/A,,Scattered Clouds,0,2013-02-05 23:00:00
6:30 AM,73.4,69.8,88,29.89,5.6,Calm,Calm,-,N/A,,Scattered Clouds,0,2013-02-05 23:30:00
7:00 AM,75,72,87,29.87,6,Calm,Calm,,,,Mist,,2013-02-06 00:00:00
7:00 AM,73.4,69.8,88,29.92,5.6,Calm,Calm,-,N/A,,Scattered Clouds,0,2013-02-06 00:00:00
7:30 AM,75.2,71.6,89,29.92,5.6,Calm,Calm,-,N/A,,Scattered Clouds,0,2013-02-06 00:30:00
8:00 AM,75.2,71.6,89,29.92,6.2,Calm,Calm,-,N/A,,Scattered Clouds,0,2013-02-06 01:00:00
8:30 AM,80.6,71.6,74,29.95,5.6,Calm,Calm,-,N/A,,Scattered Clouds,0,2013-02-06 01:30:00
9:00 AM,80.6,71.6,74,29.95,5.6,NE,3.5,-,N/A,,Scattered Clouds,50,2013-02-06 02:00:00
9:30 AM,84.2,71.6,66,29.95,5.6,East,8.1,-,N/A,,Mostly Cloudy,80,2013-02-06 02:30:00
10:00 AM,84.2,71.6,66,29.95,5.6,East,8.1,-,N/A,,Mostly Cloudy,80,2013-02-06 03:00:00
10:30 AM,84.2,69.8,62,29.95,5.6,East,9.2,-,N/A,,Mostly Cloudy,80,2013-02-06 03:30:00
11:00 AM,84.2,69.8,62,29.95,5.6,East,8.1,-,N/A,,Mostly Cloudy,90,2013-02-06 04:00:00
11:30 AM,84.2,71.6,66,29.95,5.6,East,8.1,-,N/A,,Mostly Cloudy,90,2013-02-06 04:30:00
12:00 PM,84.2,71.6,66,29.92,5.6,ENE,5.8,-,N/A,,Mostly Cloudy,60,2013-02-06 05:00:00
12:30 PM,84.2,69.8,62,29.89,5.6,ENE,4.6,-,N/A,,Mostly Cloudy,70,2013-02-06 05:30:00
1:00 PM,85,72,58,29.90,6,ESE,3.5,,,,Mist,110,2013-02-06 06:00:00
1:00 PM,86.0,71.6,62,29.89,5.0,Variable,4.6,-,N/A,,Mostly Cloudy,0,2013-02-06 06:00:00
1:30 PM,87.8,69.8,55,29.86,5.0,East,8.1,-,N/A,,Mostly Cloudy,80,2013-02-06 06:30:00
2:00 PM,87.8,69.8,55,29.83,5.0,East,8.1,-,N/A,,Mostly Cloudy,100,2013-02-06 07:00:00
2:30 PM,89.6,69.8,52,29.83,5.0,Variable,4.6,-,N/A,,Mostly Cloudy,0,2013-02-06 07:30:00
3:00 PM,89.6,68.0,49,29.80,5.0,Variable,6.9,-,N/A,,Mostly Cloudy,0,2013-02-06 08:00:00
3:30 PM,91.4,68.0,46,29.80,5.0,East,6.9,-,N/A,,Mostly Cloudy,100,2013-02-06 08:30:00
4:00 PM,91.4,68.0,46,29.77,5.0,Variable,4.6,-,N/A,,Mostly Cloudy,0,2013-02-06 09:00:00
4:30 PM,89.6,69.8,52,29.80,5.0,Variable,3.5,-,N/A,,Mostly Cloudy,0,2013-02-06 09:30:00
5:00 PM,86.0,73.4,66,29.80,5.6,West,11.5,-,N/A,,Mostly Cloudy,270,2013-02-06 10:00:00
5:30 PM,84.2,71.6,66,29.80,5.6,West,12.7,-,N/A,,Mostly Cloudy,280,2013-02-06 10:30:00
6:00 PM,84.2,71.6,66,29.83,5.6,West,10.4,-,N/A,,Mostly Cloudy,270,2013-02-06 11:00:00
6:30 PM,82.4,71.6,70,29.83,5.6,Variable,4.6,-,N/A,,Mostly Cloudy,0,2013-02-06 11:30:00
7:00 PM,85,74,63,29.80,6,WSW,4.6,,,,Mist,240,2013-02-06 12:00:00
7:00 PM,82.4,71.6,70,29.83,5.6,Variable,3.5,-,N/A,,Mostly Cloudy,0,2013-02-06 12:00:00
7:30 PM,82.4,71.6,70,29.86,5.6,SW,3.5,-,N/A,,Mostly Cloudy,220,2013-02-06 12:30:00
8:00 PM,82.4,71.6,70,29.86,5.6,Variable,4.6,-,N/A,,Mostly Cloudy,0,2013-02-06 13:00:00
8:30 PM,80.6,71.6,74,29.89,5.6,Calm,Calm,-,N/A,,Scattered Clouds,0,2013-02-06 13:30:00
9:00 PM,78.8,71.6,78,29.89,5.6,Calm,Calm,-,N/A,,Scattered Clouds,0,2013-02-06 14:00:00
9:30 PM,78.8,71.6,78,29.92,5.6,Calm,Calm,-,N/A,,Scattered Clouds,0,2013-02-06 14:30:00
10:00 PM,78.8,71.6,78,29.92,5.6,Calm,Calm,-,N/A,,Scattered Clouds,0,2013-02-06 15:00:00
11:00 PM,77.0,71.6,83,29.92,5.6,Calm,Calm,-,N/A,,Scattered Clouds,0,2013-02-06 16:00:00
11:30 PM,80.6,71.6,74,29.92,5.6,Calm,Calm,-,N/A,,Scattered Clouds,0,2013-02-06 16:30:00